[[{"header":{"parameterUnit":"m.s-1","parameterCategory":1,"la1":30.2991,"la2":30.254,"lo1":-89.0895,"lo2":-89.0444,"dy":0.0017,"dx":0.0017,"nx":28,"ny":28,"refTime":"2024-06-18T09:00:00:Z","depth":0,"parameterNumber":2,"parameterNumberName":"U-component_of_WINDS"},"data":[0,0,0,0,0,0,0,0,0,0,0,0,0,0,0,0,0,0,0,0,0,0,0,0,0,0,0,0,0,0,0,0,0,0,0,0,0,0,0,0,0,0,0,0,0,0,0,0,0,0,0,0,0,0,0,0,0,0,-9.5968,-9.5969,0,-9.6086,-9.6088,-9.6089,-9.5875,-9.5867,-9.586,-9.5854,-9.5977,-9.5987,-9.5997,0,0,0,0,0,0,0,0,0,0,0,0,0,-9.5558,-9.5566,-9.5967,-9.5969,-9.597,-9.6086,-9.6088,-9.6089,-9.5876,-9.5867,-9.5858,-9.585,-9.5974,-9.5986,-9.5998,0,0,0,0,0,0,0,0,0,0,0,0,0,-9.5712,-9.5569,-9.5967,-9.5878,-9.5871,-9.6086,-9.6088,-9.609,-9.5878,-9.5867,-9.5856,-9.5846,-9.597,-9.5984,-9.5999,-9.6307,0,0,-9.6045,-9.6051,0,0,0,0,0,0,0,0,-9.5704,-9.5727,-9.5889,-9.5884,-9.5877,-9.5954,-9.5988,-9.6163,-9.588,-9.5875,-9.5853,-9.5841,-9.5978,-9.5992,-9.6038,-9.6313,-9.6318,-9.6046,-9.6055,-9.6062,-9.6066,0,0,0,0,0,0,0,-9.5693,-9.5721,-9.6014,-9.5892,-9.5885,-9.5832,-9.5842,-9.602,-9.5986,-9.5875,-9.586,-9.5877,-9.5973,-9.6024,-9.6039,-9.632,-9.6046,-9.6059,-9.6068,-9.6074,-9.6851,-9.6863,0,0,0,0,0,0,-9.5693,-9.5714,-9.601,-9.6018,-9.5762,-9.5849,-9.586,-9.5941,-9.5983,-9.5979,-9.5886,-9.5866,-9.6004,-9.6022,-9.6043,-9.6403,-9.6062,-9.6076,-9.6084,-9.684,-9.6854,-9.6867,0,0,0,0,0,0,-9.5686,-9.5722,-9.6006,-9.5862,-9.5894,-9.5867,-9.596,-9.5949,-9.5999,-9.5991,-9.5984,-9.5944,-9.5996,-9.6022,-9.6242,-9.6404,-9.6082,-9.6096,-9.6826,-9.6844,-9.686,-9.7128,0,0,0,0,0,0,-9.5675,-9.572,-9.5836,-9.5866,-9.5902,-9.6203,-9.597,-9.5959,-9.6025,-9.6001,-9.6044,-9.6041,-9.599,-9.6221,-9.6257,-9.6419,-9.6108,-9.6811,-9.6834,-9.6855,-9.7105,-9.7153,-9.7194,0,0,0,0,0,-9.5661,-9.5908,-9.5843,-9.588,-9.6047,-9.6213,-9.6234,-9.6169,-9.6039,-9.6156,-9.6151,-9.604,-9.6382,-9.6246,-9.6284,-9.6453,-9.6801,-9.6828,-9.6853,-9.7085,-9.7143,-9.7193,0,0,0,0,0,0,-9.5898,-9.591,-9.5838,-9.6103,-9.6159,-9.6176,-9.6321,-9.6234,-9.6328,-9.6301,-9.6217,-9.6229,-9.6466,-9.6482,-9.633,-9.6753,-9.657,-9.6605,-9.6733,-9.6788,-9.6832,-9.6821,-9.612,0,0,0,0,0,-9.5982,-9.6115,-9.6118,-9.6351,-9.6383,-9.6349,-9.6418,-9.6364,-9.6418,-9.6441,-9.6452,-9.651,-9.663,-9.6711,-9.6821,-9.7108,-9.7113,-9.7244,-9.7288,-9.7325,-9.7355,-9.7506,-9.7563,-9.6953,-9.6953,-9.6952,0,0,-9.6154,-9.6177,-9.6267,-9.64,-9.6436,-9.6576,-9.6369,-9.6526,-9.6629,-9.6465,-9.6672,-9.6684,-9.6743,-9.6997,-9.711,-9.7018,-9.7526,-9.7359,-9.7388,-9.7398,-9.7539,-9.7597,-9.7648,-9.6971,-9.6967,-9.6965,0,0,-9.6539,-9.6572,-9.6767,-9.6809,-9.6867,-9.6843,-9.6891,-9.6923,-9.6923,-9.7131,-9.701,-9.7133,-9.7342,-9.7388,-9.7439,-9.7846,-9.7746,-9.7885,-9.8116,-9.8264,-9.8312,-9.8354,-9.8495,-9.8548,-9.7916,-9.7916,-9.7917,0,-9.6746,-9.6951,-9.688,-9.7045,-9.7106,-9.6965,-9.7162,-9.7207,-9.7299,-9.7345,-9.7241,-9.7501,-9.7531,-9.7793,-9.7892,-9.794,-9.799,-9.7876,-9.8311,-9.8352,-9.839,-9.8524,-9.8578,-9.7932,-9.7931,-9.7929,-9.7927,0,-9.7202,-9.7347,-9.7498,-9.7589,-9.7669,-9.785,-9.7806,-9.7895,-9.7836,-9.7823,-9.8035,-9.8067,-9.8181,-9.824,-9.8184,-9.8496,-9.8436,-9.8324,-9.8137,-9.8466,-9.859,-9.8641,-9.7956,-9.795,-9.7945,-9.7941,0,0,-9.7735,-9.7786,-9.7842,-9.7881,-9.7937,-9.8047,-9.8223,-9.8334,-9.841,-9.8481,-9.8624,-9.8806,-9.8702,-9.8761,-9.8709,-9.884,-9.9156,-9.8711,-9.8711,-9.8789,-9.9498,-9.9579,-9.964,-9.9093,-9.9102,-9.911,-9.9492,0,-9.8114,-9.8414,-9.8355,-9.8648,-9.878,-9.865,-9.8802,-9.8854,-9.8848,-9.8959,-9.8952,-9.9081,-9.8936,-9.897,-9.9094,-9.9091,-9.9297,-9.9064,-9.9224,-9.923,-9.9208,-9.9705,-9.9791,-10.0149,-9.954,-9.9549,-9.9555,0,-9.8595,-9.8681,-9.8988,-9.9021,-9.9075,-9.9213,-9.9309,-9.9418,-9.9474,-9.946,-9.9527,-9.9451,-9.9626,-9.9441,-9.968,-9.9523,-9.9586,-9.9595,-9.9608,-9.9616,-9.9409,-9.9723,-10.0263,-10.0315,-9.9631,-9.9625,-9.962,0,-9.8947,-9.9142,-9.9349,-9.9388,-9.9434,-9.9533,-9.9557,-9.9602,-9.9673,-9.9759,-9.9803,-9.991,-9.9966,-10.0051,-10.0005,-9.9876,-10.0252,-10.0064,-10.0244,-10.0245,-10.0324,-10.0319,-10.0877,-10.0374,-10.0373,-10.0372,-10.0371,0,-9.9373,-9.9565,-9.9508,-9.9635,-9.9846,-9.9779,-9.999,-9.9999,-10.0041,-10.0167,-10.0064,-10.0185,-10.012,-10.0238,-10.0204,-10.0406,-10.0434,-10.0426,-10.0414,-10.0433,-10.0433,-10.0469,-10.0441,-10.0386,-10.0383,-10.038,-10.0378,0,-9.98,-9.977,-9.9987,-10.0014,-10.0025,-10.0179,-10.0202,-10.0321,-10.0308,-10.047,-10.0505,-10.0485,-10.0618,-10.0582,-10.0727,-10.0705,-10.0958,-10.0917,-10.0938,-10.0926,-10.1107,-10.1089,-10.1703,-10.178,-10.1232,-10.1237,-10.1242,0,-10.0071,-10.0215,-10.0258,-10.0335,-10.0366,-10.0493,-10.0564,-10.0505,-10.0584,-10.0659,-10.0769,-10.0893,-10.0987,-10.1206,-10.1205,-10.1315,-10.1273,-10.1481,-10.1288,-10.1302,-10.1271,-10.1261,-10.1274,-10.1518,-10.1524,-10.1529,-10.1533,0,-10.0554,-10.0533,-10.0638,-10.0741,-10.0829,-10.0907,-10.0975,-10.1045,-10.0991,-10.1085,-10.1218,-10.1293,-10.144,-10.1564,-10.1665,-10.169,-10.1604,-10.1595,-10.1641,-10.1659,-10.1664,-10.166,-10.1038,-10.158,-10.1575,-10.1572,-10.1569,-10.1567,-10.0908,-10.1029,-10.1078,-10.12,-10.1245,-10.1312,-10.1424,-10.1426,-10.1537,-10.1651,-10.1611,-10.1764,-10.1818,-10.1945,-10.1984,-10.2103,-10.2023,-10.2092,-10.2108,-10.2125,-10.2146,-10.165,-10.2122,-10.212,-10.2119,-10.2118,-10.2117,0,-10.1381,-10.1407,-10.152,-10.1618,-10.1715,-10.1627,-10.1698,-10.1784,-10.192,-10.1977,-10.2073,-10.2227,-10.2347,-10.2357,-10.247,-10.2564,-10.2527,-10.2595,-10.2584,-10.2591,-10.2212,-10.2158,-10.2623,-10.2623,-10.2623,-10.2622,-10.2622,-10.2622,-10.1638,-10.1838,-10.1823,-10.2045,-10.2069,-10.2217,-10.2265,-10.2327,-10.2371,-10.2548,-10.2647,-10.2653,-10.2691,-10.2806,-10.2913,-10.2912,-10.2957,-10.304,-10.3025,-10.2669,-10.2618,-10.257,-10.2519,-10.3052,-10.3052,-10.3393,-10.3396,-10.3399]},{"header":{"parameterUnit":"m.s-1","parameterCategory":1,"la1":30.2991,"la2":30.254,"lo1":-89.0895,"lo2":-89.0444,"dy":0.0017,"dx":0.0017,"nx":28,"ny":28,"refTime":"2024-06-18T09:00:00:Z","depth":0,"parameterNumber":3,"parameterNumberName":"V-component_of_WINDS"},"data":[0,0,0,0,0,0,0,0,0,0,0,0,0,0,0,0,0,0,0,0,0,0,0,0,0,0,0,0,0,0,0,0,0,0,0,0,0,0,0,0,0,0,0,0,0,0,0,0,0,0,0,0,0,0,0,0,0,0,0.9081,0.9079,0,0.8935,0.8934,0.8932,0.8791,0.879,0.8788,0.8786,0.8637,0.8635,0.8632,0,0,0,0,0,0,0,0,0,0,0,0,0,0.9238,0.9236,0.9081,0.9079,0.9077,0.8936,0.8934,0.8932,0.8792,0.8789,0.8787,0.8785,0.8638,0.8635,0.8632,0,0,0,0,0,0,0,0,0,0,0,0,0,0.9139,0.9235,0.9081,0.899,0.8981,0.8936,0.8933,0.8931,0.8792,0.8789,0.8787,0.8784,0.8638,0.8635,0.8632,0.8665,0,0,0.8621,0.862,0,0,0,0,0,0,0,0,0.9145,0.9133,0.9005,0.8996,0.8986,0.8879,0.8934,0.8842,0.8793,0.8864,0.8786,0.8783,0.8719,0.8709,0.8688,0.8658,0.8651,0.8621,0.8619,0.8617,0.8616,0,0,0,0,0,0,0,0.9152,0.9139,0.9023,0.9004,0.8992,0.8957,0.894,0.8916,0.8809,0.8857,0.8847,0.8832,0.8713,0.8692,0.8683,0.8649,0.8621,0.8618,0.8616,0.8614,0.864,0.8642,0,0,0,0,0,0,0.9173,0.9146,0.9028,0.9019,0.906,0.8956,0.8937,0.8916,0.8808,0.8789,0.8834,0.8826,0.8699,0.8687,0.8678,0.8709,0.8617,0.8614,0.8612,0.8637,0.864,0.8643,0,0,0,0,0,0,0.9177,0.9163,0.9034,0.9079,0.906,0.8957,0.8934,0.8914,0.8892,0.8791,0.8771,0.8831,0.8696,0.8682,0.8669,0.8702,0.8613,0.8609,0.8634,0.8638,0.8642,0.8773,0,0,0,0,0,0,0.9182,0.9166,0.9177,0.9081,0.9058,0.9028,0.8936,0.8913,0.8887,0.8874,0.8783,0.8765,0.8693,0.8675,0.8666,0.8695,0.8607,0.863,0.8636,0.864,0.8765,0.8781,0.8794,0,0,0,0,0,0.9188,0.9219,0.9178,0.9165,0.907,0.903,0.9017,0.8933,0.889,0.89,0.8835,0.8768,0.87,0.8675,0.8663,0.8692,0.8628,0.8634,0.864,0.8758,0.8777,0.8794,0,0,0,0,0,0,0.9321,0.9205,0.9158,0.9159,0.9106,0.9006,0.9017,0.8956,0.8914,0.8904,0.8802,0.8783,0.8781,0.8735,0.8709,0.8719,0.8655,0.8659,0.8749,0.8766,0.8781,0.8791,0.8604,0,0,0,0,0,0.9351,0.9329,0.9228,0.9239,0.9214,0.9121,0.91,0.9041,0.8981,0.8957,0.8891,0.8836,0.8802,0.8782,0.8745,0.8758,0.8736,0.8773,0.8788,0.88,0.8804,0.8808,0.8823,0.8663,0.8663,0.8663,0,0,0.9412,0.9346,0.9337,0.9264,0.9215,0.9194,0.9103,0.9084,0.9067,0.8954,0.8937,0.8888,0.8819,0.882,0.8817,0.8782,0.8844,0.8808,0.8819,0.8816,0.8816,0.8831,0.8845,0.8667,0.8667,0.8666,0,0,0.9512,0.946,0.9463,0.9417,0.9345,0.9283,0.9284,0.9194,0.9157,0.9139,0.9054,0.9033,0.8977,0.8931,0.8901,0.8987,0.8923,0.8978,0.9054,0.9059,0.9071,0.9082,0.9112,0.9124,0.8983,0.8983,0.8983,0,0.9596,0.9561,0.9472,0.9459,0.9429,0.9328,0.9331,0.929,0.921,0.9192,0.9154,0.9082,0.9029,0.9017,0.9039,0.9018,0.9016,0.8987,0.9077,0.9086,0.9095,0.9122,0.9134,0.899,0.8989,0.8989,0.8988,0,0.9668,0.9645,0.9657,0.9582,0.9554,0.9549,0.9461,0.9443,0.9387,0.9329,0.9313,0.9246,0.9194,0.9187,0.9131,0.9168,0.9148,0.9096,0.9028,0.9119,0.9143,0.9152,0.9,0.8998,0.8996,0.8994,0,0,0.9846,0.9724,0.973,0.9695,0.9609,0.959,0.9581,0.953,0.9517,0.9466,0.9456,0.9412,0.9363,0.9328,0.9267,0.9272,0.9344,0.9218,0.9215,0.9243,0.938,0.9419,0.9433,0.9302,0.9304,0.9305,0.9385,0,0.993,0.9907,0.9828,0.9829,0.9807,0.9712,0.9704,0.9651,0.9597,0.9571,0.9511,0.9482,0.9419,0.9398,0.9398,0.9335,0.937,0.9329,0.9291,0.9291,0.931,0.9445,0.9487,0.9565,0.9394,0.9396,0.9397,0,1.0024,0.998,0.998,0.9895,0.9883,0.9877,0.9825,0.9802,0.974,0.9701,0.9664,0.9597,0.9582,0.9522,0.95,0.9474,0.9454,0.9422,0.9423,0.9414,0.9348,0.944,0.9588,0.96,0.9411,0.941,0.9409,0,1.0153,1.0094,1.0085,1.0059,0.9961,0.9959,0.9918,0.9854,0.9829,0.9784,0.9767,0.9722,0.9696,0.9662,0.9585,0.9548,0.9572,0.9505,0.9539,0.9541,0.9546,0.9547,0.9693,0.9537,0.9537,0.9537,0.9536,0,1.0254,1.0257,1.0142,1.0137,1.0137,1.0048,1.0051,1.0001,0.9945,0.9929,0.9844,0.9831,0.9729,0.9705,0.9644,0.9635,0.9625,0.9593,0.9576,0.9599,0.9603,0.9584,0.9576,0.954,0.9539,0.9538,0.9538,0,1.0397,1.032,1.0304,1.0214,1.0191,1.0196,1.0118,1.011,1.0052,1.0033,1.0023,0.9932,0.9899,0.9819,0.9764,0.9723,0.973,0.9701,0.9751,0.974,0.9778,0.9776,0.9915,0.9929,0.9767,0.9768,0.977,0,1.0466,1.0466,1.0376,1.0359,1.0322,1.0296,1.027,1.0183,1.016,1.0091,1.0091,1.0051,1.0014,0.9965,0.9895,0.9853,0.9821,0.9873,0.9814,0.9837,0.982,0.9821,0.982,0.9885,0.9888,0.9889,0.9891,0,1.0596,1.0559,1.0525,1.0479,1.0452,1.0411,1.0366,1.0357,1.0259,1.0237,1.0202,1.0174,1.0119,1.008,1.0028,0.9985,0.9922,0.9911,0.9916,0.9939,0.9967,0.9951,0.9785,0.9907,0.9905,0.9904,0.9903,0.9903,1.0703,1.0699,1.0635,1.0601,1.0558,1.0519,1.0507,1.0448,1.0417,1.0366,1.0316,1.0287,1.0226,1.0149,1.0111,1.0087,1.0054,1.0062,1.0064,1.0067,1.0077,0.9973,1.0077,1.0076,1.0076,1.0075,1.0075,0,1.0828,1.0783,1.0753,1.0693,1.0667,1.0611,1.0558,1.054,1.0515,1.0464,1.043,1.039,1.0353,1.028,1.0236,1.0231,1.0201,1.0222,1.0221,1.0212,1.0109,1.0108,1.0247,1.0247,1.0247,1.0247,1.0247,1.0247,1.089,1.088,1.0835,1.0804,1.0758,1.0729,1.0704,1.0667,1.0626,1.0585,1.0554,1.0507,1.0448,1.0399,1.0363,1.0342,1.033,1.0361,1.0331,1.0236,1.0219,1.0204,1.0202,1.0359,1.0359,1.0436,1.0436,1.0437]}]]